Tracking 30995 objects as of 5-Jul-2025
HD Live streaming from Space Station
objects crossing your sky now

SL-8 DEB

Track SL-8 DEB now!
10-day predictions


NORAD ID: 1591
Int'l Code: 1965-073H
Perigee: 1,380.6 km
Apogee: 1,622.1 km
Inclination: 56.1 °
Period: 115.9 minutes
Semi major axis: 7872 km
RCS: 0.0613 m2 (small)
Launch date: September 18, 1965
Source: Commonwealth of Independent States (former USSR) (CIS)
Launch site: TYURATAM MISSILE AND SPACE COMPLEX (TTMTR)

Note: This is SATELLITE DEBRIS
Your satellite tracking list
Your tracking list is empty




NASA's NSSDC Master Catalog

Two Line Element Set (TLE):
1 01591U 65073H   25186.45846958  .00000052  00000-0  10030-2 0  9991
2 01591  56.0609 352.7310 0153397 228.4979 160.4190 12.42924691705614
Source of the keplerian elements: AFSPC